Location: Pulvis Stellarum Observatory
(41.6962°N, 71.4263°W)
Time: 18:09:57
(UTC-04:00)

Cosmos 1758 - Visible Passes

Search period start: 21 September 2014 00:00
Search period end: 01 October 2014 00:00
Orbit: 551 x 574 km, 82.5° (Epoch: 20 September)

Date Brightness Start Highest point End Pass type
(mag) Time Alt. Az. Time Alt. Az. Time Alt. Az.
21 Sep 4.7 19:06:45 10° SE 19:09:47 20° E 19:12:51 10° NE visible
21 Sep 5.3 20:42:36 10° SW 20:46:16 30° WNW 20:49:58 10° NNW visible
22 Sep 4.5 19:06:04 10° SE 19:09:25 24° E 19:12:46 10° NE visible
22 Sep 5.7 20:42:32 10° SW 20:46:00 25° WNW 20:49:29 10° NNW visible
23 Sep 4.2 19:05:27 10° SSE 19:09:02 29° E 19:12:38 10° NNE visible
23 Sep 6.0 20:42:32 10° WSW 20:45:44 21° WNW 20:48:57 10° NNW visible
24 Sep 4.0 19:04:53 10° SSE 19:08:40 35° E 19:12:28 10° NNE visible
24 Sep 6.3 20:42:37 10° WSW 20:45:28 18° WNW 20:48:21 10° NNW visible
25 Sep 3.7 19:04:23 10° SSE 19:08:18 43° E 19:12:15 10° NNE visible
25 Sep 6.6 20:42:49 10° WSW 20:45:13 15° WNW 20:47:39 10° NW visible
26 Sep 3.5 19:03:55 10° S 19:07:56 53° E 19:12:00 10° NNE visible
26 Sep 6.9 20:43:11 10° W 20:44:59 13° WNW 20:46:47 10° NW visible
27 Sep 7.0 05:07:10 10° NE 05:08:27 11° ENE 05:09:43 10° E visible
27 Sep 3.4 19:03:29 10° S 19:07:35 66° E 19:11:43 10° NNE visible
27 Sep 7.1 20:44:07 10° WNW 20:44:44 10° WNW 20:45:22 10° WNW visible
28 Sep 6.8 05:06:07 10° NE 05:08:12 14° ENE 05:10:16 10° E visible
28 Sep 3.4 19:03:06 10° S 19:07:14 81° E 19:11:24 10° N visible
29 Sep 6.6 05:05:20 10° NNE 05:07:56 16° ENE 05:10:31 10° ESE visible
29 Sep 3.5 19:02:44 10° S 19:06:53 83° W 19:11:04 10° N visible
30 Sep 6.3 05:04:41 10° NNE 05:07:40 19° ENE 05:10:37 10° ESE visible
30 Sep 3.9 19:02:26 10° SSW 19:06:33 67° W 19:10:42 10° N visible
